Cincinnati Municipal Airport Lunken Field
KLUK : now visible

Airfield :











YOU CAN JOIN US ON...

 
LOGIN :

Register | Disclaimer

   EN    FR    IT 

 









Legend :    VFR   Marginal VFR   IFR   Intensive IFR   Very Intensive IFR
Visi :
Ceiling :
>= 8 km
>= 3000ft
5 to 8 km
1000 to 3000 ft
1500m to 5 km
500 to 1000 ft
800 to 1500m
200 to 500 ft
< 800m
< 200 ft
Symbols :   Thunderstorms  Fog  Heavy snow  Heavy precipitations  Wind > 20 kt






- Airport Elevation : 483 ft
- IATA code : LUK


KLUK - Cincinnati Municipal Lunken Field

CURRENT METAR :
  • 141653Z 21010KT 10SM BKN070 03/M03 A3026 RMK AO2 SLP251 T00331033

EXPIRED METARs :
  • 141553Z 19005KT 10SM BKN080 02/M03 A3027 RMK AO2 SLP256 T00171033

TAF KLUK
Valid from the 14 at 12:00 until the 15 at 12:00 UTC


141157Z 1412/1512 19006KT P6SM BKN150 OVC200
FM141700 22007KT P6SM SCT100
FM150000 27003KT P6SM SCT060
FM150600 VRB02KT P6SM SKC



MET'MAP, your aeronautical weather chart ! - Copyright ORBIFLY December 2007 - Disclaimer

ORBIFLY MET'MAP TEAM :

Programming & Development : Alexandra Zaïnal
Concept & Development : Baudouin d'Aumeries
Co-Development & Prog : Marc-Olivier Méhu
Technical & hardware support : Manuel Goepfert

Contact : metmap@orbifly.com




SOURCES & CREDITS :

   NOAA       Earth
Advisory